When you browse on this site, cookies collect data to enhance your experience and personalize the content and advertising you see.
Visit our Privacy Policy to learn more. By continuing to use the site, you agree to this use of cookies and data.
  • In Latvia
  • List of Countries
  • For 7 days
  • Water Temperature
  • Weather Map
  • Weather Widgets
  • user-avatar
    Login

    Hourly Weather Priuzenskiy

    Today, 25 August, Sunday

    Time Temperature Precipitation Wind Pressure Humidity
    00:00 +23°C° 0 mm 4 mps 760 mmHg 58%
    01:00 +23°C° 0 mm 4 mps 760 mmHg 59%
    02:00 +22°C° 0 mm 4 mps 760 mmHg 60%
    03:00 +21°C° 0 mm 5 mps 760 mmHg 60%
    04:00 +21°C° 0 mm 5 mps 760 mmHg 59%
    05:00 +21°C° 0 mm 5 mps 760 mmHg 57%
    06:00 +21°C° 0 mm 5 mps 761 mmHg 56%
    07:00 +23°C° 0 mm 5 mps 761 mmHg 50%
    08:00 +25°C° 0 mm 5 mps 761 mmHg 45%
    09:00 +27°C° 0 mm 5 mps 761 mmHg 38%
    10:00 +28°C° 0 mm 5 mps 761 mmHg 31%
    11:00 +30°C° 0 mm 5 mps 761 mmHg 25%
    12:00 +32°C° 0 mm 5 mps 760 mmHg 18%
    13:00 +32°C° 0 mm 5 mps 760 mmHg 19%
    14:00 +32°C° 0 mm 5 mps 760 mmHg 19%
    15:00 +33°C° 0 mm 5 mps 760 mmHg 20%
    16:00 +32°C° 0 mm 5 mps 760 mmHg 21%
    17:00 +30°C° 0 mm 4 mps 760 mmHg 23%
    18:00 +29°C° 0 mm 4 mps 760 mmHg 24%
    19:00 +28°C° 0 mm 4 mps 761 mmHg 28%
    20:00 +26°C° 0 mm 4 mps 761 mmHg 33%
    21:00 +25°C° 0 mm 5 mps 762 mmHg 37%
    22:00 +23°C° 0 mm 5 mps 762 mmHg 43%
    23:00 +22°C° 0 mm 6 mps 762 mmHg 48%

    Tomorrow, 26 August, Monday

    Time Temperature Precipitation Wind Pressure Humidity
    00:00 +21°C° 0 mm 7 mps 762 mmHg 54%
    01:00 +20°C° 0 mm 6 mps 763 mmHg 58%
    02:00 +19°C° 0 mm 6 mps 763 mmHg 61%
    03:00 +17°C° 0 mm 5 mps 764 mmHg 65%
    04:00 +17°C° 0 mm 5 mps 764 mmHg 65%
    05:00 +16°C° 0 mm 5 mps 764 mmHg 65%
    06:00 +16°C° 0 mm 5 mps 764 mmHg 66%
    07:00 +17°C° 0 mm 6 mps 765 mmHg 61%
    08:00 +19°C° 0 mm 6 mps 765 mmHg 56%
    09:00 +21°C° 0 mm 6 mps 765 mmHg 52%
    10:00 +22°C° 0 mm 6 mps 765 mmHg 45%
    11:00 +23°C° 0 mm 6 mps 765 mmHg 38%
    12:00 +26°C° 0 mm 6 mps 765 mmHg 32%
    13:00 +26°C° 0 mm 5 mps 765 mmHg 29%
    14:00 +27°C° 0 mm 5 mps 765 mmHg 26%
    15:00 +27°C° 0 mm 5 mps 765 mmHg 23%
    16:00 +26°C° 0 mm 4 mps 765 mmHg 25%
    17:00 +26°C° 0 mm 4 mps 765 mmHg 26%
    18:00 +25°C° 0 mm 4 mps 765 mmHg 27%
    19:00 +24°C° 0 mm 3 mps 765 mmHg 31%
    20:00 +21°C° 0 mm 3 mps 765 mmHg 35%
    21:00 +20°C° 0 mm 3 mps 765 mmHg 39%
    22:00 +19°C° 0 mm 3 mps 765 mmHg 42%
    23:00 +18°C° 0 mm 3 mps 765 mmHg 46%

    Day after tomorrow, 27 August, Tuesday

    Time Temperature Precipitation Wind Pressure Humidity
    00:00 +18°C° 0 mm 2 mps 765 mmHg 49%
    01:00 +17°C° 0 mm 2 mps 765 mmHg 51%
    02:00 +16°C° 0 mm 2 mps 765 mmHg 53%
    03:00 +16°C° 0 mm 1 mps 765 mmHg 55%
    04:00 +16°C° 0 mm 1 mps 764 mmHg 54%
    05:00 +18°C° 0 mm 1 mps 764 mmHg 52%
    06:00 +18°C° 0 mm 1 mps 764 mmHg 51%
    07:00 +19°C° 0 mm 2 mps 763 mmHg 45%
    08:00 +21°C° 0 mm 2 mps 763 mmHg 39%
    09:00 +24°C° 0 mm 3 mps 763 mmHg 34%
    10:00 +25°C° 0 mm 3 mps 762 mmHg 31%
    11:00 +26°C° 0 mm 4 mps 762 mmHg 28%
    12:00 +27°C° 0 mm 4 mps 761 mmHg 25%
    13:00 +27°C° 0 mm 5 mps 760 mmHg 24%
    14:00 +27°C° 0 mm 5 mps 760 mmHg 23%
    15:00 +28°C° 0 mm 6 mps 759 mmHg 22%
    16:00 +27°C° 0 mm 5 mps 759 mmHg 24%
    17:00 +26°C° 0 mm 4 mps 758 mmHg 25%
    18:00 +26°C° 0 mm 4 mps 758 mmHg 27%
    19:00 +23°C° 0 mm 4 mps 757 mmHg 30%
    20:00 +22°C° 0 mm 3 mps 757 mmHg 33%
    21:00 +21°C° 0 mm 3 mps 756 mmHg 36%
    22:00 +21°C° 0.1 mm 4 mps 756 mmHg 40%
    23:00 +21°C° 0.1 mm 4 mps 755 mmHg 43%

    28 August, Wednesday

    Time Temperature Precipitation Wind Pressure Humidity
    00:00 +20°C° 0.1 mm 5 mps 755 mmHg 47%
    01:00 +19°C° 0.6 mm 5 mps 754 mmHg 56%
    02:00 +17°C° 0.6 mm 6 mps 754 mmHg 65%
    03:00 +16°C° 0.6 mm 6 mps 754 mmHg 75%
    04:00 +16°C° 0 mm 6 mps 754 mmHg 75%
    05:00 +16°C° 0 mm 7 mps 753 mmHg 75%
    06:00 +15°C° 0 mm 7 mps 753 mmHg 75%
    07:00 +16°C° 0 mm 7 mps 753 mmHg 68%
    08:00 +16°C° 0 mm 8 mps 754 mmHg 61%
    09:00 +16°C° 0 mm 8 mps 754 mmHg 54%
    10:00 +16°C° 0 mm 9 mps 754 mmHg 50%
    11:00 +16°C° 0 mm 9 mps 754 mmHg 47%
    12:00 +16°C° 0 mm 10 mps 754 mmHg 44%
    13:00 +16°C° 0 mm 10 mps 755 mmHg 44%
    14:00 +16°C° 0 mm 10 mps 755 mmHg 45%
    15:00 +16°C° 0 mm 9 mps 755 mmHg 45%
    16:00 +16°C° 0 mm 9 mps 755 mmHg 45%
    17:00 +16°C° 0 mm 8 mps 756 mmHg 45%
    18:00 +16°C° 0 mm 8 mps 756 mmHg 45%
    19:00 +15°C° 0 mm 8 mps 756 mmHg 49%
    20:00 +14°C° 0 mm 7 mps 756 mmHg 53%
    21:00 +14°C° 0 mm 7 mps 757 mmHg 57%
    22:00 +12°C° 0 mm 7 mps 757 mmHg 58%
    23:00 +12°C° 0 mm 7 mps 757 mmHg 59%

    29 August, Thursday

    Time Temperature Precipitation Wind Pressure Humidity
    00:00 +12°C° 0 mm 8 mps 757 mmHg 60%
    01:00 +12°C° 0 mm 8 mps 757 mmHg 62%
    02:00 +11°C° 0 mm 7 mps 757 mmHg 64%
    03:00 +10°C° 0 mm 7 mps 756 mmHg 66%
    04:00 +11°C° 0 mm 7 mps 757 mmHg 66%
    05:00 +11°C° 0 mm 8 mps 757 mmHg 67%
    06:00 +11°C° 0 mm 8 mps 757 mmHg 67%
    07:00 +12°C° 0 mm 8 mps 758 mmHg 64%
    08:00 +12°C° 0 mm 8 mps 758 mmHg 62%
    09:00 +13°C° 0 mm 8 mps 758 mmHg 59%
    10:00 +13°C° 0 mm 8 mps 758 mmHg 58%
    11:00 +13°C° 0 mm 8 mps 759 mmHg 57%
    12:00 +13°C° 0 mm 8 mps 759 mmHg 55%
    13:00 +15°C° 0 mm 8 mps 759 mmHg 53%
    14:00 +15°C° 0 mm 8 mps 759 mmHg 51%
    15:00 +15°C° 0 mm 8 mps 759 mmHg 49%
    16:00 +15°C° 0 mm 8 mps 759 mmHg 49%
    17:00 +15°C° 0 mm 7 mps 760 mmHg 48%
    18:00 +15°C° 0 mm 7 mps 760 mmHg 48%
    19:00 +14°C° 0 mm 7 mps 760 mmHg 50%
    20:00 +13°C° 0 mm 6 mps 761 mmHg 52%
    21:00 +13°C° 0 mm 6 mps 761 mmHg 54%
    22:00 +11°C° 0 mm 6 mps 761 mmHg 55%
    23:00 +10°C° 0 mm 5 mps 761 mmHg 56%

    30 August, Friday

    Time Temperature Precipitation Wind Pressure Humidity
    00:00 +10°C° 0 mm 5 mps 761 mmHg 57%
    01:00 +9°C° 0 mm 5 mps 761 mmHg 60%
    02:00 +9°C° 0 mm 5 mps 761 mmHg 63%
    03:00 +8°C° 0 mm 5 mps 761 mmHg 66%
    04:00 +8°C° 0 mm 6 mps 761 mmHg 66%
    05:00 +8°C° 0 mm 6 mps 761 mmHg 67%
    06:00 +8°C° 0 mm 6 mps 761 mmHg 67%
    07:00 +9°C° 0 mm 6 mps 762 mmHg 63%
    08:00 +11°C° 0 mm 6 mps 762 mmHg 59%
    09:00 +13°C° 0 mm 6 mps 762 mmHg 55%
    10:00 +14°C° 0 mm 6 mps 762 mmHg 51%
    11:00 +15°C° 0 mm 6 mps 762 mmHg 48%
    12:00 +17°C° 0 mm 6 mps 762 mmHg 44%
    13:00 +16°C° 0 mm 6 mps 762 mmHg 45%
    14:00 +16°C° 0 mm 6 mps 762 mmHg 45%
    15:00 +16°C° 0 mm 5 mps 761 mmHg 46%
    16:00 +16°C° 0 mm 5 mps 762 mmHg 48%
    17:00 +15°C° 0 mm 5 mps 762 mmHg 50%
    18:00 +15°C° 0 mm 4 mps 762 mmHg 52%
    19:00 +14°C° 0 mm 4 mps 762 mmHg 56%
    20:00 +14°C° 0 mm 4 mps 762 mmHg 61%
    21:00 +13°C° 0 mm 4 mps 762 mmHg 66%
    22:00 +12°C° 0 mm 4 mps 763 mmHg 68%
    23:00 +12°C° 0 mm 4 mps 763 mmHg 71%
    Show more